Weather History for KW29 - February, 2013

Change the Weather History Date:

Sunday, February 24, 2013

  Actual Average (KESN) Record (KESN)
Temperature  
Mean Temperature 42 °F -  
Max Temperature 50 °F 50 °F 70 °F (1975)
Min Temperature 33 °F 29 °F 12 °F (2015)
Degree Days  
Heating Degree Days 24    
Moisture  
Dew Point 33 °F    
Average Humidity 75    
Maximum Humidity 100    
Minimum Humidity 43    
Precipitation  
Precipitation 0.00 in - - ()
Sea Level Pressure  
Sea Level Pressure 29.91 in    
Wind  
Wind Speed 8 mph (NW)    
Max Wind Speed 20 mph    
Max Gust Speed 31 mph    
Visibility 7 miles    
Events      
Averages and records for this station are not official NWS values.
T = Trace of Precipitation, MM = Missing Value Source: NWS Daily Summary

Daily Weather History Graph

Daily Weather History Graph

Search for Another Location

Airport or City:

Trip Planner

Search our weather history database for the weather conditions in past years. The results will help you decide how hot, cold, wet, or windy it might be!

Date:

Astronomy

Feb. 24, 2013 Rise Set
Actual Time 6:44 AM EST 5:52 PM EST
Civil Twilight 6:17 AM EST 6:19 PM EST
Nautical Twilight 5:46 AM EST 6:50 PM EST
Astronomical Twilight 5:15 AM EST 7:21 PM EST
Moon 5:01 PM EST (2/24) 5:40 AM EST (2/24)
Length of Visible Light 12h 02m
Length of Day
11h 08m
Waxing Gibbous, 99% of the Moon is Illuminated
Feb 24
Waxing Gibbous
Feb 25
Full
Mar 4
Last Quarter
Mar 11
New
Mar 19
First Quarter

Hourly Weather History & Observations

Time (EST) Temp. Windchill Dew Point Humidity Pressure Visibility Wind Dir Wind Speed Gust Speed Precip Events Conditions
12:16 AM 41.0 °F 36.4 °F 41.0 °F 100% 29.81 in 1.2 mi NNW 6.9 mph - N/A   Overcast
12:36 AM 39.2 °F 37.0 °F 39.2 °F 100% 29.82 in 0.8 mi NNW 3.5 mph - N/A   Overcast
12:56 AM 39.2 °F 37.0 °F 39.2 °F 100% 29.83 in 0.2 mi NNW 3.5 mph - N/A   Overcast
1:16 AM 41.0 °F 38.0 °F 41.0 °F 100% 29.83 in 0.2 mi NNW 4.6 mph - N/A   Overcast
1:36 AM 41.0 °F 35.8 °F 41.0 °F 100% 29.82 in 0.2 mi NNW 8.1 mph - N/A   Overcast
1:56 AM 39.2 °F 35.0 °F 39.2 °F 100% 29.82 in 0.2 mi NNW 5.8 mph - N/A   Overcast
2:16 AM 39.2 °F 34.2 °F 39.2 °F 100% 29.82 in 0.5 mi NNW 6.9 mph - N/A   Overcast
2:36 AM 39.2 °F 33.0 °F 39.2 °F 100% 29.81 in 1.2 mi NNW 9.2 mph - N/A   Overcast
2:56 AM 39.2 °F 34.2 °F 39.2 °F 100% 29.81 in 1.2 mi NNW 6.9 mph - N/A   Overcast
3:16 AM 39.2 °F 34.2 °F 39.2 °F 100% 29.80 in 1.2 mi NNW 6.9 mph - N/A   Overcast
3:36 AM 39.2 °F 34.2 °F 39.2 °F 100% 29.80 in 1.2 mi North 6.9 mph - N/A   Overcast
3:56 AM 39.2 °F 33.6 °F 39.2 °F 100% 29.80 in 0.8 mi NNW 8.1 mph - N/A   Overcast
4:16 AM 39.2 °F 37.0 °F 39.2 °F 100% 29.80 in 1.0 mi North 3.5 mph - N/A   Overcast
4:56 AM 39.2 °F - 39.2 °F 100% 29.80 in 1.2 mi Calm Calm - N/A   Overcast
5:16 AM 37.4 °F - 37.4 °F 100% 29.81 in 1.8 mi Calm Calm - N/A   Overcast
5:36 AM 37.4 °F 33.8 °F 37.4 °F 100% 29.81 in 1.8 mi NW 4.6 mph - N/A   Overcast
5:56 AM 37.4 °F 33.8 °F 37.4 °F 100% 29.82 in 2.5 mi NW 4.6 mph - N/A   Overcast
6:16 AM 39.2 °F 35.9 °F 39.2 °F 100% 29.82 in 2.5 mi NW 4.6 mph - N/A   Overcast
6:36 AM 39.2 °F 35.9 °F 39.2 °F 100% 29.83 in 2.5 mi NW 4.6 mph - N/A   Overcast
6:56 AM 39.2 °F 35.9 °F 39.2 °F 100% 29.85 in 3.0 mi WNW 4.6 mph - N/A   Overcast
7:17 AM 39.2 °F 37.0 °F 39.2 °F 100% 29.87 in 2.0 mi West 3.5 mph - N/A   Overcast
7:37 AM 39.2 °F 35.9 °F 39.2 °F 100% 29.87 in 2.5 mi WNW 4.6 mph - N/A   Overcast
7:57 AM 41.0 °F 37.1 °F 41.0 °F 100% 29.86 in 4.0 mi NNW 5.8 mph - N/A   Overcast
8:17 AM 41.0 °F - 41.0 °F 100% 29.86 in 5.0 mi Calm Calm - N/A   Mostly Cloudy
8:37 AM 42.8 °F 41.1 °F 42.8 °F 100% 29.86 in 5.0 mi NW 3.5 mph - N/A   Scattered Clouds
8:57 AM 42.8 °F 41.1 °F 42.8 °F 100% 29.86 in 7.0 mi NW 3.5 mph - N/A   Clear
9:17 AM 42.8 °F 41.1 °F 41.0 °F 93% 29.87 in 5.0 mi WNW 3.5 mph - N/A   Clear
9:37 AM 42.8 °F 39.3 °F 41.0 °F 93% 29.87 in 7.0 mi WNW 5.8 mph - N/A   Clear
9:57 AM 44.6 °F 43.1 °F 41.0 °F 87% 29.87 in 7.0 mi NW 3.5 mph - N/A   Clear
10:17 AM 44.6 °F 41.4 °F 41.0 °F 87% 29.88 in 7.0 mi West 5.8 mph - N/A   Scattered Clouds
10:37 AM 44.6 °F 42.2 °F 37.4 °F 76% 29.89 in 7.0 mi NW 4.6 mph - N/A   Scattered Clouds
10:57 AM 44.6 °F 41.4 °F 37.4 °F 76% 29.88 in 10.0 mi NW 5.8 mph - N/A   Mostly Cloudy
11:17 AM 46.4 °F 42.9 °F 35.6 °F 66% 29.88 in 10.0 mi NNW 6.9 mph - N/A   Scattered Clouds
11:37 AM 46.4 °F 41.9 °F 33.8 °F 62% 29.88 in 10.0 mi NW 9.2 mph - N/A   Scattered Clouds
11:57 AM 46.4 °F 41.9 °F 33.8 °F 62% 29.87 in 10.0 mi NW 9.2 mph - N/A   Scattered Clouds
12:17 PM 46.4 °F 39.8 °F 32.0 °F 57% 29.87 in 10.0 mi WNW 16.1 mph 21.9 mph N/A   Scattered Clouds
12:37 PM 48.2 °F - 30.2 °F 50% 29.87 in 10.0 mi NW 15.0 mph 20.7 mph N/A   Scattered Clouds
12:57 PM 48.2 °F - 30.2 °F 50% 29.86 in 10.0 mi WNW 10.4 mph 19.6 mph N/A   Clear
1:17 PM 50.0 °F - 30.2 °F 47% 29.86 in 10.0 mi WNW 11.5 mph - N/A   Clear
1:37 PM 46.4 °F 40.4 °F 32.0 °F 57% 29.86 in 10.0 mi WNW 13.8 mph 17.3 mph N/A   Clear
1:57 PM 48.2 °F - 30.2 °F 50% 29.86 in 10.0 mi NW 12.7 mph - N/A   Clear
2:17 PM 48.2 °F - 30.2 °F 50% 29.86 in 10.0 mi WNW 12.7 mph - N/A   Clear
2:37 PM 48.2 °F - 30.2 °F 50% 29.86 in 10.0 mi NW 16.1 mph 19.6 mph N/A   Clear
2:57 PM 50.0 °F - 28.4 °F 43% 29.86 in 10.0 mi WNW 17.3 mph 23.0 mph N/A   Clear
3:17 PM 50.0 °F - 28.4 °F 43% 29.87 in 10.0 mi NW 15.0 mph 21.9 mph N/A   Clear
3:37 PM 48.2 °F - 28.4 °F 46% 29.87 in 10.0 mi WNW 12.7 mph - N/A   Clear
3:58 PM 48.2 °F - 28.4 °F 46% 29.88 in 10.0 mi NW 13.8 mph 21.9 mph N/A   Clear
4:18 PM 46.4 °F 41.5 °F 28.4 °F 50% 29.89 in 10.0 mi NW 10.4 mph 19.6 mph N/A   Clear
4:38 PM 44.6 °F 38.1 °F 30.2 °F 57% 29.90 in 10.0 mi NNW 13.8 mph 20.7 mph N/A   Clear
4:58 PM 42.8 °F 34.5 °F 30.2 °F 61% 29.92 in 10.0 mi NNW 18.4 mph 26.5 mph N/A   Clear
5:18 PM 41.0 °F 32.8 °F 28.4 °F 61% 29.93 in 10.0 mi NNW 16.1 mph 23.0 mph N/A   Clear
5:38 PM 41.0 °F 32.8 °F 28.4 °F 61% 29.95 in 10.0 mi NNW 16.1 mph 25.3 mph N/A   Clear
5:58 PM 41.0 °F 31.9 °F 26.6 °F 57% 29.96 in 10.0 mi NW 19.6 mph 26.5 mph N/A   Clear
6:18 PM 41.0 °F 32.8 °F 26.6 °F 57% 29.97 in 10.0 mi NW 16.1 mph 26.5 mph N/A   Clear
6:38 PM 39.2 °F 29.6 °F 24.8 °F 56% 29.99 in 10.0 mi NW 19.6 mph 27.6 mph N/A   Clear
6:58 PM 37.4 °F 27.2 °F 24.8 °F 60% 30.00 in 10.0 mi NW 19.6 mph 31.1 mph N/A   Clear
7:18 PM 37.4 °F 28.5 °F 24.8 °F 60% 30.02 in 10.0 mi NW 15.0 mph 23.0 mph N/A   Clear
7:38 PM 37.4 °F 28.2 °F 23.0 °F 56% 30.03 in 10.0 mi NW 16.1 mph 29.9 mph N/A   Clear
7:58 PM 37.4 °F 27.2 °F 23.0 °F 56% 30.04 in 10.0 mi NW 19.6 mph 28.8 mph N/A   Clear
8:18 PM 35.6 °F 25.2 °F 24.8 °F 65% 30.05 in 10.0 mi NW 18.4 mph 29.9 mph N/A   Clear
8:38 PM 35.6 °F 25.5 °F 23.0 °F 60% 30.05 in 10.0 mi NW 17.3 mph 29.9 mph N/A   Clear
8:58 PM 35.6 °F 25.5 °F 24.8 °F 65% 30.07 in 10.0 mi NW 17.3 mph 24.2 mph N/A   Clear
9:18 PM 35.6 °F 25.2 °F 24.8 °F 65% 30.07 in 10.0 mi NW 18.4 mph 24.2 mph N/A   Clear
9:38 PM 35.6 °F 26.6 °F 24.8 °F 65% 30.09 in 10.0 mi NW 13.8 mph 21.9 mph N/A   Clear
9:58 PM 35.6 °F 25.9 °F 23.0 °F 60% 30.09 in 10.0 mi NW 16.1 mph 21.9 mph N/A   Clear
10:18 PM 35.6 °F 25.2 °F 24.8 °F 65% 30.09 in 10.0 mi NW 18.4 mph 24.2 mph N/A   Clear
10:38 PM 33.8 °F 23.9 °F 23.0 °F 65% 30.09 in 10.0 mi NW 15.0 mph 23.0 mph N/A   Clear
10:58 PM 33.8 °F 23.5 °F 23.0 °F 65% 30.10 in 10.0 mi NW 16.1 mph 21.9 mph N/A   Clear
11:18 PM 33.8 °F 23.9 °F 23.0 °F 65% 30.09 in 10.0 mi WNW 15.0 mph - N/A   Clear
11:38 PM 33.8 °F 24.3 °F 23.0 °F 65% 30.10 in 10.0 mi WNW 13.8 mph 18.4 mph N/A   Clear
11:58 PM 33.8 °F 24.8 °F 23.0 °F 65% 30.10 in 10.0 mi WNW 12.7 mph - N/A   Clear